STARLINK-33909, 63804

Orbit data source: Space-Track

STARLINK-33909, 63804 is a payload satellite owned by SpaceX/Seattle (US) in LEO that was launched on Sun, 04 May 2025 UTC via an FALCON 9 launch vehicle from the Air Force Eastern Test Range (AFETR). Payload-class satellites include a variety of spacecraft equipped with specific instruments for various scientific and technological missions. These include communications satellites like Starlink; space stations such as the ISS; scientific satellites like the Hubble; Earth observation satellites from companies like Planet Labs, Umbra, and HawkEye 360; GPS; miniature CubeSats for education and research; and military/defense satellites.

Loading next visibility...
Identifier
63804, 2025-092A
Orbit
LEO
Country
Flag of USUS
Related business
Manufacturer
SpaceX/Seattle
Mission
Operational Commercial Communications
Bus & Motor
STARLINK V2MO, Unknown motor
Mass
575 kg wet, ~530 kg dry
Launch date (UTC)
2025-05-04 (6 months ago)
Launch vehicle
FALCON 9
Launch site
Air Force Eastern Test Range (AFETR)
Object type
Payload
Rocket body
Debris
Shape & HBR
Box + 2 Pan, 17.7 m
Radar Cross Section
36.964 m², Large (>1 m²)

Expand to show TLE details & history
Last TLE update: 20 hours ago

TLE from 20 hours ago
0 STARLINK-33909
1 63804U 25092A   25302.74603982  .00022152  00000-0  81242-3 0  9992
2 63804  43.0018 192.4733 0001336 244.4233 115.6481 15.27567446 28589
Epoch: 2025-10-29T17:54Z
TLE epoch observation values (Epoch: 2025-10-29T17:54:17.840Z)
Latitude
0.00001°
Longitude
-114.41578°
Altitude
483.259 km
Speed
7.625 km/s
True Right ascension
12h 49m 53s
True Declination
0° 00' 00"
Sunlit
Object was in daylight at epoch
Visualization orbit readout
Latitude
Unknown
Longitude
Unknown
Altitude
Unknown
Speed
Unknown
Apparent Right ascension
Unknown
Apparent Declination
Unknown
Sunlit
N/A
Visualization observer readout
Local Sidereal Time
09:55:01
Azimuth
Unknown
Elevation
Unknown
Doppler factor
Unknown
Orbital elements
Apogee altitude
485.948 km
Perigee altitude
484.115 km
Semi-major axis
6,863.169 km
Eccentricity
0.00013
Inclination
43.0018°
RAAN
192.4733°
Arg. of periapsis
244.4233°
True anomaly
115.6619°
Mean anomaly
115.6481°
Eccentric anomaly
115.655°
Mean motion
3.8173 °/min
Orbital period
94.31 mins
BSTAR
0.00081242
Loading maneuver chart data...
Computing Atmospheric mass density...
Loading historical data...
Loading historical data...
Loading historical data...
Loading historical data...
Loading historical data...
Loading historical data...
Loading historical data...

Documentation

Showing up to 5 results
|